Tracking 29528 objects as of 12-Sep-2024
HD Live streaming from Space Station
objects crossing your sky now

ONEWEB-0126

Track ONEWEB-0126 now!
10-day predictions
ONEWEB-0126 is classified as:


NORAD ID: 47272
Int'l Code: 2020-100Q
Perigee: 1,219.4 km
Apogee: 1,222.3 km
Inclination: 87.9 °
Period: 109.7 minutes
Semi major axis: 7591 km
RCS: Unknown
Launch date: December 18, 2020
Source: United Kingdom (UK)
Launch site: VOSTOCHNY COSMODROME (VOSTO)
Your satellite tracking list
Your tracking list is empty




NASA's NSSDC Master Catalog

Two Line Element Set (TLE):
1 47272U 20100Q   24255.68092645  .00000438  00000-0  11809-2 0  9999
2 47272  87.8882 118.8121 0001870  79.9269 280.2070 13.12444749180293
Source of the keplerian elements: AFSPC